Time,TemperatureF,DewpointF,PressureIn,WindDirection,WindDirectionDegrees,WindSpeedMPH,WindSpeedGustMPH,Humidity,HourlyPrecipIn,Conditions,Clouds,dailyrainin,SoftwareType,DateUTC
2013-05-30 00:00:00,65.3,57.9,30.20,NNE,24,0.0,0.0,77,0.00,CLR,,0.00,WeatherDisplay:10.37,2013-05-30 04:00:00,
2013-05-30 00:01:00,65.3,57.9,30.20,NNE,24,0.0,0.0,77,0.00,CLR,,0.00,WeatherDisplay:10.37,2013-05-30 04:01:00,
2013-05-30 00:06:00,65.3,57.9,30.21,NNE,24,0.0,0.0,77,0.00,CLR,,0.00,WeatherDisplay:10.37,2013-05-30 04:06:00,
2013-05-30 00:11:00,65.3,57.9,30.20,NNE,24,0.0,0.0,77,0.00,CLR,,0.00,WeatherDisplay:10.37,2013-05-30 04:11:00,
2013-05-30 00:16:00,65.1,57.7,30.20,NNE,24,0.0,0.0,77,0.00,CLR,,0.00,WeatherDisplay:10.37,2013-05-30 04:16:00,
2013-05-30 00:21:00,64.9,57.6,30.21,NNE,24,0.0,0.0,77,0.00,CLR,,0.00,WeatherDisplay:10.37,2013-05-30 04:21:00,
2013-05-30 00:26:00,64.9,57.6,30.20,NNE,24,0.0,0.0,77,0.00,CLR,,0.00,WeatherDisplay:10.37,2013-05-30 04:26:00,
2013-05-30 00:31:00,64.9,57.9,30.20,NNE,24,0.0,0.0,78,0.00,CLR,,0.00,WeatherDisplay:10.37,2013-05-30 04:31:00,
2013-05-30 00:36:00,64.9,58.3,30.20,NNE,24,0.0,0.0,79,0.00,CLR,,0.00,WeatherDisplay:10.37,2013-05-30 04:36:00,
2013-05-30 00:41:00,64.9,58.3,30.20,NNE,24,0.0,0.0,79,0.00,CLR,,0.00,WeatherDisplay:10.37,2013-05-30 04:41:00,
2013-05-30 00:46:00,64.9,57.9,30.20,NNE,24,0.0,0.0,78,0.00,CLR,,0.00,WeatherDisplay:10.37,2013-05-30 04:46:00,
2013-05-30 00:51:00,64.9,58.3,30.20,NNE,24,0.0,0.0,79,0.00,CLR,,0.00,WeatherDisplay:10.37,2013-05-30 04:51:00,
2013-05-30 00:56:00,64.9,57.9,30.20,NNE,24,0.0,0.0,78,0.00,CLR,,0.00,WeatherDisplay:10.37,2013-05-30 04:56:00,
2013-05-30 01:01:00,64.8,57.7,30.21,NNE,24,0.0,0.0,78,0.00,CLR,,0.00,WeatherDisplay:10.37,2013-05-30 05:01:00,
2013-05-30 01:06:00,64.6,57.9,30.21,NNE,24,0.0,0.0,79,0.00,CLR,,0.00,WeatherDisplay:10.37,2013-05-30 05:06:00,
2013-05-30 01:11:00,64.2,57.6,30.21,NNE,24,0.0,0.0,79,0.00,CLR,,0.00,WeatherDisplay:10.37,2013-05-30 05:11:00,
2013-05-30 01:16:00,64.0,57.4,30.21,NNE,24,0.0,0.0,79,0.00,CLR,,0.00,WeatherDisplay:10.37,2013-05-30 05:16:00,
2013-05-30 01:22:00,63.7,57.0,30.21,NNE,24,0.0,0.0,79,0.00,CLR,,0.00,WeatherDisplay:10.37,2013-05-30 05:22:00,
2013-05-30 01:27:00,63.5,56.9,30.21,NNE,24,0.0,0.0,79,0.00,CLR,,0.00,WeatherDisplay:10.37,2013-05-30 05:27:00,
2013-05-30 01:32:00,63.3,57.0,30.21,NNE,24,0.0,0.0,80,0.00,CLR,,0.00,WeatherDisplay:10.37,2013-05-30 05:32:00,
2013-05-30 01:37:00,63.1,56.9,30.21,NNE,24,0.0,0.0,80,0.00,CLR,,0.00,WeatherDisplay:10.37,2013-05-30 05:37:00,
2013-05-30 01:42:00,63.0,56.7,30.21,NNE,24,0.0,0.0,80,0.00,CLR,,0.00,WeatherDisplay:10.37,2013-05-30 05:42:00,
2013-05-30 01:47:00,62.8,56.9,30.21,NNE,24,0.0,0.0,81,0.00,CLR,,0.00,WeatherDisplay:10.37,2013-05-30 05:47:00,
2013-05-30 01:52:00,62.8,57.2,30.21,NNE,24,0.0,0.0,82,0.00,CLR,,0.00,WeatherDisplay:10.37,2013-05-30 05:52:00,
2013-05-30 01:57:00,62.8,57.2,30.21,NNE,24,0.0,0.0,82,0.00,CLR,,0.00,WeatherDisplay:10.37,2013-05-30 05:57:00,
2013-05-30 02:02:00,62.8,57.2,30.20,NNE,24,0.0,0.0,82,0.00,CLR,,0.00,WeatherDisplay:10.37,2013-05-30 06:02:00,
2013-05-30 02:07:00,62.8,57.2,30.21,NNE,24,0.0,0.0,82,0.00,CLR,,0.00,WeatherDisplay:10.37,2013-05-30 06:07:00,
2013-05-30 02:12:00,62.8,57.2,30.21,NNE,24,0.0,0.0,82,0.00,CLR,,0.00,WeatherDisplay:10.37,2013-05-30 06:12:00,
2013-05-30 02:17:00,62.8,57.2,30.21,NNE,24,0.0,0.0,82,0.00,CLR,,0.00,WeatherDisplay:10.37,2013-05-30 06:17:00,
2013-05-30 02:22:00,62.8,57.2,30.21,NNE,24,0.0,0.0,82,0.00,CLR,,0.00,WeatherDisplay:10.37,2013-05-30 06:22:00,
2013-05-30 02:27:00,62.8,57.5,30.21,NNE,24,0.0,0.0,83,0.00,CLR,,0.00,WeatherDisplay:10.37,2013-05-30 06:27:00,
2013-05-30 02:32:00,62.8,57.5,30.21,NNE,24,0.0,0.0,83,0.00,CLR,,0.00,WeatherDisplay:10.37,2013-05-30 06:32:00,
2013-05-30 02:37:00,62.8,57.5,30.21,NNE,24,0.0,0.0,83,0.00,CLR,,0.00,WeatherDisplay:10.37,2013-05-30 06:37:00,
2013-05-30 02:42:00,62.8,57.5,30.21,NNE,24,0.0,0.0,83,0.00,CLR,,0.00,WeatherDisplay:10.37,2013-05-30 06:42:00,
2013-05-30 02:47:00,62.8,57.5,30.21,NNE,24,0.0,0.0,83,0.00,CLR,,0.00,WeatherDisplay:10.37,2013-05-30 06:47:00,
2013-05-30 02:52:00,62.8,57.5,30.21,NNE,24,0.0,0.0,83,0.00,CLR,,0.00,WeatherDisplay:10.37,2013-05-30 06:52:00,
2013-05-30 02:57:00,62.6,57.4,30.21,NNE,24,0.0,0.0,83,0.00,CLR,,0.00,WeatherDisplay:10.37,2013-05-30 06:57:00,
2013-05-30 03:02:00,62.4,57.2,30.21,NNE,24,0.0,0.0,83,0.00,CLR,,0.00,WeatherDisplay:10.37,2013-05-30 07:02:00,
2013-05-30 03:07:00,62.2,56.7,30.21,NNE,24,0.0,0.0,82,0.00,CLR,,0.00,WeatherDisplay:10.37,2013-05-30 07:07:00,
2013-05-30 03:12:00,61.9,56.7,30.21,NNE,24,0.0,0.0,83,0.00,CLR,,0.00,WeatherDisplay:10.37,2013-05-30 07:12:00,
2013-05-30 03:17:00,61.9,56.7,30.21,NNE,24,0.0,0.0,83,0.00,CLR,,0.00,WeatherDisplay:10.37,2013-05-30 07:17:00,
2013-05-30 03:22:00,61.9,57.0,30.21,NNE,24,0.0,0.0,84,0.00,CLR,,0.00,WeatherDisplay:10.37,2013-05-30 07:22:00,
2013-05-30 03:27:00,61.7,56.8,30.21,NNE,24,0.0,0.0,84,0.00,CLR,,0.00,WeatherDisplay:10.37,2013-05-30 07:27:00,
2013-05-30 03:32:00,61.7,56.8,30.22,NNE,24,0.0,0.0,84,0.00,CLR,,0.00,WeatherDisplay:10.37,2013-05-30 07:32:00,
2013-05-30 03:37:00,61.5,56.6,30.21,NNE,24,0.0,0.0,84,0.00,CLR,,0.00,WeatherDisplay:10.37,2013-05-30 07:37:00,
2013-05-30 03:42:00,61.3,56.5,30.21,NNE,24,0.0,0.0,84,0.00,CLR,,0.00,WeatherDisplay:10.37,2013-05-30 07:42:00,
2013-05-30 03:47:00,61.3,56.5,30.22,NNE,24,0.0,0.0,84,0.00,CLR,,0.00,WeatherDisplay:10.37,2013-05-30 07:47:00,
2013-05-30 03:52:00,61.2,56.3,30.22,NNE,24,0.0,0.0,84,0.00,CLR,,0.00,WeatherDisplay:10.37,2013-05-30 07:52:00,
2013-05-30 03:57:00,61.0,56.1,30.22,NNE,24,0.0,0.0,84,0.00,CLR,,0.00,WeatherDisplay:10.37,2013-05-30 07:57:00,
2013-05-30 04:02:00,60.6,55.8,30.22,NNE,24,0.0,0.0,84,0.00,CLR,,0.00,WeatherDisplay:10.37,2013-05-30 08:02:00,
2013-05-30 04:07:00,60.4,55.6,30.22,NNE,24,0.0,0.0,84,0.00,CLR,,0.00,WeatherDisplay:10.37,2013-05-30 08:07:00,
2013-05-30 04:12:00,60.4,55.6,30.22,NNE,24,0.0,0.0,84,0.00,CLR,,0.00,WeatherDisplay:10.37,2013-05-30 08:12:00,
2013-05-30 04:17:00,60.1,55.2,30.22,NNE,24,0.0,0.0,84,0.00,CLR,,0.00,WeatherDisplay:10.37,2013-05-30 08:17:00,
2013-05-30 04:22:00,60.1,55.6,30.23,NNE,24,0.0,0.0,85,0.00,CLR,,0.00,WeatherDisplay:10.37,2013-05-30 08:22:00,
2013-05-30 04:27:00,60.1,55.6,30.23,NNE,24,0.0,0.0,85,0.00,CLR,,0.00,WeatherDisplay:10.37,2013-05-30 08:27:00,
2013-05-30 04:32:00,59.9,55.4,30.23,NNE,24,0.0,0.0,85,0.00,CLR,,0.00,WeatherDisplay:10.37,2013-05-30 08:32:00,
2013-05-30 04:37:00,59.9,55.4,30.22,NNE,24,0.0,0.0,85,0.00,CLR,,0.00,WeatherDisplay:10.37,2013-05-30 08:37:00,
2013-05-30 04:42:00,59.7,55.2,30.23,NNE,24,0.0,0.0,85,0.00,CLR,,0.00,WeatherDisplay:10.37,2013-05-30 08:42:00,
2013-05-30 04:47:00,59.2,54.7,30.23,NNE,24,0.0,0.0,85,0.00,CLR,,0.00,WeatherDisplay:10.37,2013-05-30 08:47:00,
2013-05-30 04:52:00,58.8,54.6,30.23,NNE,24,0.0,0.0,86,0.00,CLR,,0.00,WeatherDisplay:10.37,2013-05-30 08:52:00,
2013-05-30 04:57:00,58.8,54.6,30.23,NNE,24,0.0,0.0,86,0.00,CLR,,0.00,WeatherDisplay:10.37,2013-05-30 08:57:00,
2013-05-30 05:02:00,58.8,55.0,30.23,NNE,24,0.0,0.0,87,0.00,CLR,,0.00,WeatherDisplay:10.37,2013-05-30 09:02:00,
2013-05-30 05:07:00,58.8,55.0,30.23,NNE,24,0.0,0.0,87,0.00,CLR,,0.00,WeatherDisplay:10.37,2013-05-30 09:07:00,
2013-05-30 05:12:00,58.8,55.0,30.23,NNE,24,0.0,0.0,87,0.00,CLR,,0.00,WeatherDisplay:10.37,2013-05-30 09:12:00,
2013-05-30 05:17:00,58.8,55.0,30.23,NNE,24,0.0,0.0,87,0.00,CLR,,0.00,WeatherDisplay:10.37,2013-05-30 09:17:00,
2013-05-30 05:22:00,58.8,55.0,30.23,NNE,24,0.0,0.0,87,0.00,CLR,,0.00,WeatherDisplay:10.37,2013-05-30 09:22:00,
2013-05-30 05:27:00,58.6,54.8,30.23,NNE,24,0.0,0.0,87,0.00,CLR,,0.00,WeatherDisplay:10.37,2013-05-30 09:27:00,
2013-05-30 05:32:00,58.6,54.5,30.23,NNE,24,0.0,0.0,86,0.00,CLR,,0.00,WeatherDisplay:10.37,2013-05-30 09:32:00,
2013-05-30 05:37:00,58.5,54.3,30.24,NNE,24,0.0,0.0,86,0.00,CLR,,0.00,WeatherDisplay:10.37,2013-05-30 09:37:00,
2013-05-30 05:42:00,58.3,54.4,30.23,NNE,24,0.0,0.0,87,0.00,CLR,,0.00,WeatherDisplay:10.37,2013-05-30 09:42:00,
2013-05-30 05:47:00,58.3,54.4,30.23,NNE,24,0.0,0.0,87,0.00,CLR,,0.00,WeatherDisplay:10.37,2013-05-30 09:47:00,
2013-05-30 05:52:00,58.1,54.2,30.24,NNE,24,0.0,0.0,87,0.00,CLR,,0.00,WeatherDisplay:10.37,2013-05-30 09:52:00,
2013-05-30 05:57:00,57.9,54.1,30.23,NNE,24,0.0,0.0,87,0.00,CLR,,0.00,WeatherDisplay:10.37,2013-05-30 09:57:00,
2013-05-30 06:02:00,57.9,54.4,30.23,NNE,24,0.0,0.0,88,0.00,CLR,,0.00,WeatherDisplay:10.37,2013-05-30 10:02:00,
2013-05-30 06:07:00,57.9,54.4,30.23,NNE,24,0.0,0.0,88,0.00,CLR,,0.00,WeatherDisplay:10.37,2013-05-30 10:07:00,
2013-05-30 06:12:00,57.9,54.4,30.24,NNE,24,0.0,0.0,88,0.00,CLR,,0.00,WeatherDisplay:10.37,2013-05-30 10:12:00,
2013-05-30 06:17:00,57.9,54.4,30.24,NNE,24,0.0,0.0,88,0.00,CLR,,0.00,WeatherDisplay:10.37,2013-05-30 10:17:00,
2013-05-30 06:22:00,57.9,54.4,30.24,NNE,24,0.0,0.0,88,0.00,CLR,,0.00,WeatherDisplay:10.37,2013-05-30 10:22:00,
2013-05-30 06:27:00,57.9,54.4,30.24,NNE,24,0.0,0.0,88,0.00,CLR,,0.00,WeatherDisplay:10.37,2013-05-30 10:27:00,
2013-05-30 06:32:00,57.9,54.4,30.25,NNE,24,0.0,0.0,88,0.00,CLR,,0.00,WeatherDisplay:10.37,2013-05-30 10:32:00,
2013-05-30 06:37:00,57.9,54.4,30.25,NNE,24,0.0,0.0,88,0.00,CLR,,0.00,WeatherDisplay:10.37,2013-05-30 10:37:00,
2013-05-30 06:42:00,58.1,54.6,30.25,NNE,24,0.0,0.0,88,0.00,CLR,,0.00,WeatherDisplay:10.37,2013-05-30 10:42:00,
2013-05-30 06:47:00,58.1,54.6,30.25,NNE,24,0.0,0.0,88,0.00,CLR,,0.00,WeatherDisplay:10.37,2013-05-30 10:47:00,
2013-05-30 06:53:00,57.9,54.4,30.25,NNE,24,0.0,0.0,88,0.00,CLR,,0.00,WeatherDisplay:10.37,2013-05-30 10:53:00,
2013-05-30 06:58:00,57.9,54.4,30.25,NNE,24,0.0,0.0,88,0.00,CLR,,0.00,WeatherDisplay:10.37,2013-05-30 10:58:00,
2013-05-30 07:03:00,57.9,54.4,30.25,NNE,24,0.0,0.0,88,0.00,CLR,,0.00,WeatherDisplay:10.37,2013-05-30 11:03:00,
2013-05-30 07:08:00,58.1,54.6,30.25,NNE,24,0.0,0.0,88,0.00,CLR,,0.00,WeatherDisplay:10.37,2013-05-30 11:08:00,
2013-05-30 07:13:00,58.3,54.7,30.26,NNE,24,0.0,0.0,88,0.00,CLR,,0.00,WeatherDisplay:10.37,2013-05-30 11:13:00,
2013-05-30 07:18:00,58.5,54.9,30.25,NNE,24,0.0,0.0,88,0.00,CLR,,0.00,WeatherDisplay:10.37,2013-05-30 11:18:00,
2013-05-30 07:23:00,58.6,55.1,30.25,NNE,24,0.0,0.0,88,0.00,CLR,,0.00,WeatherDisplay:10.37,2013-05-30 11:23:00,
2013-05-30 07:28:00,58.8,55.3,30.25,NNE,24,0.0,0.0,88,0.00,CLR,,0.00,WeatherDisplay:10.37,2013-05-30 11:28:00,
2013-05-30 07:33:00,58.8,55.3,30.25,NNE,24,0.0,0.0,88,0.00,CLR,,0.00,WeatherDisplay:10.37,2013-05-30 11:33:00,
2013-05-30 07:38:00,58.8,55.3,30.25,NNE,24,0.0,0.0,88,0.00,CLR,,0.00,WeatherDisplay:10.37,2013-05-30 11:38:00,
2013-05-30 07:43:00,59.0,55.4,30.25,NNE,24,0.0,0.0,88,0.00,CLR,,0.00,WeatherDisplay:10.37,2013-05-30 11:43:00,
2013-05-30 07:48:00,59.5,56.0,30.25,NNE,24,0.0,0.0,88,0.00,CLR,,0.00,WeatherDisplay:10.37,2013-05-30 11:48:00,
2013-05-30 07:53:00,59.7,56.2,30.26,NNE,24,0.0,0.0,88,0.00,CLR,,0.00,WeatherDisplay:10.37,2013-05-30 11:53:00,
2013-05-30 07:58:00,60.1,56.5,30.26,NNE,24,0.0,0.0,88,0.00,CLR,,0.00,WeatherDisplay:10.37,2013-05-30 11:58:00,
2013-05-30 08:03:00,60.4,56.9,30.26,NNE,24,0.0,0.0,88,0.00,CLR,,0.00,WeatherDisplay:10.37,2013-05-30 12:03:00,
2013-05-30 08:08:00,60.6,57.0,30.26,NNE,24,0.0,0.0,88,0.00,CLR,,0.00,WeatherDisplay:10.37,2013-05-30 12:08:00,
2013-05-30 08:13:00,61.2,57.6,30.26,NNE,24,0.0,0.0,88,0.00,CLR,,0.00,WeatherDisplay:10.37,2013-05-30 12:13:00,
2013-05-30 08:18:00,61.5,57.9,30.26,NNE,24,0.0,0.0,88,0.00,CLR,,0.00,WeatherDisplay:10.37,2013-05-30 12:18:00,
2013-05-30 08:23:00,61.9,58.0,30.26,NNE,24,0.0,0.0,87,0.00,CLR,,0.00,WeatherDisplay:10.37,2013-05-30 12:23:00,
2013-05-30 08:28:00,62.4,58.5,30.26,NNE,24,0.0,0.0,87,0.00,CLR,,0.00,WeatherDisplay:10.37,2013-05-30 12:28:00,
2013-05-30 08:33:00,62.8,58.9,30.27,NNE,24,0.0,0.0,87,0.00,CLR,,0.00,WeatherDisplay:10.37,2013-05-30 12:33:00,
2013-05-30 08:38:00,63.3,59.1,30.27,NNE,24,0.0,0.0,86,0.00,CLR,,0.00,WeatherDisplay:10.37,2013-05-30 12:38:00,
2013-05-30 08:43:00,64.0,59.8,30.27,NNE,24,0.0,0.0,86,0.00,CLR,,0.00,WeatherDisplay:10.37,2013-05-30 12:43:00,
2013-05-30 08:48:00,64.6,60.0,30.27,NNE,24,0.0,0.0,85,0.00,CLR,,0.00,WeatherDisplay:10.37,2013-05-30 12:48:00,
2013-05-30 08:53:00,65.1,60.2,30.28,NNE,24,0.0,0.0,84,0.00,CLR,,0.00,WeatherDisplay:10.37,2013-05-30 12:53:00,
2013-05-30 08:58:00,65.8,60.9,30.28,NNE,24,0.0,0.0,84,0.00,CLR,,0.00,WeatherDisplay:10.37,2013-05-30 12:58:00,
2013-05-30 09:03:00,66.2,60.9,30.28,NNE,24,0.0,0.0,83,0.00,CLR,,0.00,WeatherDisplay:10.37,2013-05-30 13:03:00,
2013-05-30 09:08:00,66.9,61.2,30.28,NNE,24,0.0,0.0,82,0.00,CLR,,0.00,WeatherDisplay:10.37,2013-05-30 13:08:00,
2013-05-30 09:13:00,67.6,61.2,30.28,NNE,24,0.0,0.0,80,0.00,CLR,,0.00,WeatherDisplay:10.37,2013-05-30 13:13:00,
2013-05-30 09:18:00,68.2,61.4,30.28,NNE,24,0.0,0.0,79,0.00,CLR,,0.00,WeatherDisplay:10.37,2013-05-30 13:18:00,
2013-05-30 09:23:00,68.9,61.4,30.28,NNE,24,0.0,0.0,77,0.00,CLR,,0.00,WeatherDisplay:10.37,2013-05-30 13:23:00,
2013-05-30 09:28:00,69.6,61.7,30.28,NNE,24,0.0,0.0,76,0.00,CLR,,0.00,WeatherDisplay:10.37,2013-05-30 13:28:00,
2013-05-30 09:33:00,70.0,61.7,30.28,NNE,24,0.0,0.0,75,0.00,CLR,,0.00,WeatherDisplay:10.37,2013-05-30 13:33:00,
2013-05-30 09:38:00,70.9,61.8,30.29,NNE,24,0.0,0.0,73,0.00,CLR,,0.00,WeatherDisplay:10.37,2013-05-30 13:38:00,
2013-05-30 09:43:00,71.4,61.5,30.28,NNE,24,0.0,0.0,71,0.00,CLR,,0.00,WeatherDisplay:10.37,2013-05-30 13:43:00,
2013-05-30 09:48:00,72.1,61.8,30.29,NNE,24,0.0,0.0,70,0.00,CLR,,0.00,WeatherDisplay:10.37,2013-05-30 13:48:00,
2013-05-30 09:53:00,72.7,61.5,30.28,NNE,24,0.0,0.0,68,0.00,CLR,,0.00,WeatherDisplay:10.37,2013-05-30 13:53:00,
2013-05-30 09:58:00,72.9,61.3,30.28,NNE,24,0.0,0.0,67,0.00,CLR,,0.00,WeatherDisplay:10.37,2013-05-30 13:58:00,
2013-05-30 10:03:00,73.2,61.2,30.29,NNE,24,0.0,0.0,66,0.00,CLR,,0.00,WeatherDisplay:10.37,2013-05-30 14:03:00,
2013-05-30 10:08:00,73.2,59.9,30.29,NNE,24,0.0,0.0,63,0.00,CLR,,0.00,WeatherDisplay:10.37,2013-05-30 14:08:00,
2013-05-30 10:13:00,73.6,59.8,30.28,NNE,24,0.0,0.0,62,0.00,CLR,,0.00,WeatherDisplay:10.37,2013-05-30 14:13:00,
2013-05-30 10:18:00,73.6,59.3,30.28,NNE,24,0.0,0.0,61,0.00,CLR,,0.00,WeatherDisplay:10.37,2013-05-30 14:18:00,
2013-05-30 10:23:00,73.9,59.6,30.28,NNE,24,0.0,0.0,61,0.00,CLR,,0.00,WeatherDisplay:10.37,2013-05-30 14:23:00,
2013-05-30 10:28:00,75.4,60.5,30.28,NNE,24,0.0,0.0,60,0.00,CLR,,0.00,WeatherDisplay:10.37,2013-05-30 14:28:00,
2013-05-30 10:33:00,76.1,61.2,30.28,NNE,24,0.0,0.0,60,0.00,CLR,,0.00,WeatherDisplay:10.37,2013-05-30 14:33:00,
2013-05-30 10:38:00,76.5,61.1,30.28,NNE,24,0.0,0.0,59,0.00,CLR,,0.00,WeatherDisplay:10.37,2013-05-30 14:38:00,
2013-05-30 10:43:00,76.5,60.6,30.28,NNE,24,0.0,0.0,58,0.00,CLR,,0.00,WeatherDisplay:10.37,2013-05-30 14:43:00,
2013-05-30 10:48:00,76.3,59.9,30.28,NNE,24,0.0,0.0,57,0.00,CLR,,0.00,WeatherDisplay:10.37,2013-05-30 14:48:00,
2013-05-30 10:53:00,76.1,60.2,30.28,NNE,24,0.0,0.0,58,0.00,CLR,,0.00,WeatherDisplay:10.37,2013-05-30 14:53:00,
2013-05-30 10:58:00,76.1,60.2,30.28,NNE,24,0.0,0.0,58,0.00,CLR,,0.00,WeatherDisplay:10.37,2013-05-30 14:58:00,
2013-05-30 11:03:00,76.1,60.2,30.28,NNE,24,0.0,0.0,58,0.00,CLR,,0.00,WeatherDisplay:10.37,2013-05-30 15:03:00,
2013-05-30 11:08:00,76.3,59.9,30.28,NNE,24,0.0,0.0,57,0.00,CLR,,0.00,WeatherDisplay:10.37,2013-05-30 15:08:00,
2013-05-30 11:13:00,76.3,59.4,30.27,NNE,24,0.0,0.0,56,0.00,CLR,,0.00,WeatherDisplay:10.37,2013-05-30 15:13:00,
2013-05-30 11:18:00,76.5,60.1,30.28,NNE,24,0.0,0.0,57,0.00,CLR,,0.00,WeatherDisplay:10.37,2013-05-30 15:18:00,
2013-05-30 11:23:00,76.8,60.4,30.27,NNE,24,0.0,0.0,57,0.00,CLR,,0.00,WeatherDisplay:10.37,2013-05-30 15:23:00,
2013-05-30 11:28:00,77.0,60.6,30.27,NNE,24,0.0,0.0,57,0.00,CLR,,0.00,WeatherDisplay:10.37,2013-05-30 15:28:00,
2013-05-30 11:33:00,77.4,60.4,30.27,NNE,24,0.0,0.0,56,0.00,CLR,,0.00,WeatherDisplay:10.37,2013-05-30 15:33:00,
2013-05-30 11:38:00,77.5,60.6,30.27,NNE,24,0.0,0.0,56,0.00,CLR,,0.00,WeatherDisplay:10.37,2013-05-30 15:38:00,
2013-05-30 11:43:00,77.7,60.8,30.27,NNE,24,0.0,0.0,56,0.00,CLR,,0.00,WeatherDisplay:10.37,2013-05-30 15:43:00,
2013-05-30 11:48:00,77.9,60.9,30.26,NNE,24,0.0,0.0,56,0.00,CLR,,0.00,WeatherDisplay:10.37,2013-05-30 15:48:00,
2013-05-30 11:53:00,78.3,60.8,30.26,NNE,24,0.0,0.0,55,0.00,CLR,,0.00,WeatherDisplay:10.37,2013-05-30 15:53:00,
2013-05-30 11:58:00,78.6,60.6,30.26,NNE,24,0.0,0.0,54,0.00,CLR,,0.00,WeatherDisplay:10.37,2013-05-30 15:58:00,
2013-05-30 12:03:00,78.4,60.4,30.26,NNE,24,0.0,0.0,54,0.00,CLR,,0.00,WeatherDisplay:10.37,2013-05-30 16:03:00,
2013-05-30 12:08:00,78.6,61.1,30.26,NNE,24,0.0,0.0,55,0.00,CLR,,0.00,WeatherDisplay:10.37,2013-05-30 16:08:00,
2013-05-30 12:13:00,79.0,60.9,30.26,NNE,24,0.0,0.0,54,0.00,CLR,,0.00,WeatherDisplay:10.37,2013-05-30 16:13:00,
2013-05-30 12:18:00,79.2,60.6,30.26,NNE,24,0.0,0.0,53,0.00,CLR,,0.00,WeatherDisplay:10.37,2013-05-30 16:18:00,
2013-05-30 12:23:00,79.2,60.6,30.26,NNE,24,0.0,0.0,53,0.00,CLR,,0.00,WeatherDisplay:10.37,2013-05-30 16:23:00,
2013-05-30 12:28:00,79.5,60.9,30.26,NNE,24,0.0,0.0,53,0.00,CLR,,0.00,WeatherDisplay:10.37,2013-05-30 16:28:00,
2013-05-30 12:33:00,80.2,61.6,30.26,NNE,24,0.0,0.0,53,0.00,CLR,,0.00,WeatherDisplay:10.37,2013-05-30 16:33:00,
2013-05-30 12:38:00,80.4,61.7,30.25,NNE,24,0.0,0.0,53,0.00,CLR,,0.00,WeatherDisplay:10.37,2013-05-30 16:38:00,
2013-05-30 12:43:00,80.8,62.1,30.25,NNE,24,0.0,0.0,53,0.00,CLR,,0.00,WeatherDisplay:10.37,2013-05-30 16:43:00,
2013-05-30 12:48:00,81.3,62.6,30.25,NNE,24,0.0,0.0,53,0.00,CLR,,0.00,WeatherDisplay:10.37,2013-05-30 16:48:00,
2013-05-30 12:53:00,81.3,62.0,30.25,NNE,24,0.0,0.0,52,0.00,CLR,,0.00,WeatherDisplay:10.37,2013-05-30 16:53:00,
2013-05-30 12:58:00,81.5,62.2,30.25,NNE,24,0.0,0.0,52,0.00,CLR,,0.00,WeatherDisplay:10.37,2013-05-30 16:58:00,
2013-05-30 13:03:00,81.5,62.2,30.25,NNE,24,0.0,0.0,52,0.00,CLR,,0.00,WeatherDisplay:10.37,2013-05-30 17:03:00,
2013-05-30 13:08:00,82.0,62.7,30.25,NNE,24,0.0,0.0,52,0.00,CLR,,0.00,WeatherDisplay:10.37,2013-05-30 17:08:00,
2013-05-30 13:13:00,82.6,62.1,30.24,NNE,24,0.0,0.0,50,0.00,CLR,,0.00,WeatherDisplay:10.37,2013-05-30 17:13:00,
2013-05-30 13:18:00,82.8,61.6,30.24,NNE,24,0.0,0.0,49,0.00,CLR,,0.00,WeatherDisplay:10.37,2013-05-30 17:18:00,
2013-05-30 13:23:00,82.4,60.7,30.24,NNE,24,0.0,0.0,48,0.00,CLR,,0.00,WeatherDisplay:10.37,2013-05-30 17:23:00,
2013-05-30 13:28:00,82.4,61.3,30.23,NNE,24,0.0,0.0,49,0.00,CLR,,0.00,WeatherDisplay:10.37,2013-05-30 17:28:00,
2013-05-30 13:33:00,82.4,61.3,30.23,NNE,24,0.0,0.0,49,0.00,CLR,,0.00,WeatherDisplay:10.37,2013-05-30 17:33:00,
2013-05-30 13:38:00,82.6,60.9,30.23,NNE,24,0.0,0.0,48,0.00,CLR,,0.00,WeatherDisplay:10.37,2013-05-30 17:38:00,
2013-05-30 13:43:00,83.1,61.4,30.23,NNE,24,0.0,0.0,48,0.00,CLR,,0.00,WeatherDisplay:10.37,2013-05-30 17:43:00,
2013-05-30 13:48:00,83.3,61.0,30.22,NNE,24,0.0,0.0,47,0.00,CLR,,0.00,WeatherDisplay:10.37,2013-05-30 17:48:00,
2013-05-30 13:53:00,83.3,61.0,30.23,NNE,24,0.0,0.0,47,0.00,CLR,,0.00,WeatherDisplay:10.37,2013-05-30 17:53:00,
2013-05-30 13:58:00,83.3,61.6,30.22,NNE,24,0.0,0.0,48,0.00,CLR,,0.00,WeatherDisplay:10.37,2013-05-30 17:58:00,
2013-05-30 14:03:00,83.7,61.9,30.22,NNE,24,0.0,0.0,48,0.00,CLR,,0.00,WeatherDisplay:10.37,2013-05-30 18:03:00,
2013-05-30 14:08:00,83.3,61.0,30.22,NNE,24,0.0,0.0,47,0.00,CLR,,0.00,WeatherDisplay:10.37,2013-05-30 18:08:00,
2013-05-30 14:13:00,83.1,61.4,30.22,NNE,24,0.0,0.0,48,0.00,CLR,,0.00,WeatherDisplay:10.37,2013-05-30 18:13:00,
2013-05-30 14:18:00,83.1,61.4,30.22,NNE,24,0.0,0.0,48,0.00,CLR,,0.00,WeatherDisplay:10.37,2013-05-30 18:18:00,
2013-05-30 14:23:00,82.9,60.0,30.21,NNE,24,0.0,0.0,46,0.00,CLR,,0.00,WeatherDisplay:10.37,2013-05-30 18:23:00,
2013-05-30 14:28:00,82.6,59.7,30.21,NNE,24,0.0,0.0,46,0.00,CLR,,0.00,WeatherDisplay:10.37,2013-05-30 18:28:00,
2013-05-30 14:33:00,82.2,59.4,30.22,NNE,24,0.0,0.0,46,0.00,CLR,,0.00,WeatherDisplay:10.37,2013-05-30 18:33:00,
2013-05-30 14:38:00,81.7,58.3,30.21,NNE,24,0.0,0.0,45,0.00,CLR,,0.00,WeatherDisplay:10.37,2013-05-30 18:38:00,
2013-05-30 14:43:00,81.9,59.1,30.21,NNE,24,0.0,0.0,46,0.00,CLR,,0.00,WeatherDisplay:10.37,2013-05-30 18:43:00,
2013-05-30 14:48:00,82.9,58.8,30.21,NNE,24,0.0,0.0,44,0.00,CLR,,0.00,WeatherDisplay:10.37,2013-05-30 18:48:00,
2013-05-30 14:53:00,84.2,58.6,30.21,NNE,24,0.0,0.0,42,0.00,CLR,,0.00,WeatherDisplay:10.37,2013-05-30 18:53:00,
2013-05-30 14:58:00,85.1,59.4,30.21,NNE,24,0.0,0.0,42,0.00,CLR,,0.00,WeatherDisplay:10.37,2013-05-30 18:58:00,
2013-05-30 15:03:00,85.6,57.8,30.21,NNE,24,0.0,0.0,39,0.00,CLR,,0.00,WeatherDisplay:10.37,2013-05-30 19:03:00,
2013-05-30 15:08:00,85.8,58.0,30.21,NNE,24,0.0,0.0,39,0.00,CLR,,0.00,WeatherDisplay:10.37,2013-05-30 19:08:00,
2013-05-30 15:13:00,85.8,59.4,30.21,NNE,24,0.0,0.0,41,0.00,CLR,,0.00,WeatherDisplay:10.37,2013-05-30 19:13:00,
2013-05-30 15:18:00,86.4,58.5,30.20,NNE,24,0.0,0.0,39,0.00,CLR,,0.00,WeatherDisplay:10.37,2013-05-30 19:18:00,
2013-05-30 15:23:00,86.5,58.6,30.20,NNE,24,0.0,0.0,39,0.00,CLR,,0.00,WeatherDisplay:10.37,2013-05-30 19:23:00,
2013-05-30 15:28:00,86.5,58.6,30.20,NNE,24,0.0,0.0,39,0.00,CLR,,0.00,WeatherDisplay:10.37,2013-05-30 19:28:00,
2013-05-30 15:33:00,86.4,59.9,30.19,NNE,24,0.0,0.0,41,0.00,CLR,,0.00,WeatherDisplay:10.37,2013-05-30 19:33:00,
2013-05-30 15:38:00,86.5,60.0,30.20,NNE,24,0.0,0.0,41,0.00,CLR,,0.00,WeatherDisplay:10.37,2013-05-30 19:38:00,
2013-05-30 15:43:00,86.7,60.2,30.20,NNE,24,0.0,0.0,41,0.00,CLR,,0.00,WeatherDisplay:10.37,2013-05-30 19:43:00,
2013-05-30 15:48:00,86.5,58.6,30.19,NNE,24,0.0,0.0,39,0.00,CLR,,0.00,WeatherDisplay:10.37,2013-05-30 19:48:00,
2013-05-30 15:53:00,86.2,56.9,30.20,NNE,24,0.0,0.0,37,0.00,CLR,,0.00,WeatherDisplay:10.37,2013-05-30 19:53:00,
2013-05-30 15:58:00,85.8,56.5,30.20,NNE,24,0.0,0.0,37,0.00,CLR,,0.00,WeatherDisplay:10.37,2013-05-30 19:58:00,
2013-05-30 16:03:00,85.1,57.4,30.20,NNE,24,0.0,0.0,39,0.00,CLR,,0.00,WeatherDisplay:10.37,2013-05-30 20:03:00,
2013-05-30 16:08:00,84.7,56.3,30.20,NNE,24,0.0,0.0,38,0.00,CLR,,0.00,WeatherDisplay:10.37,2013-05-30 20:08:00,
2013-05-30 16:13:00,84.4,55.3,30.19,NNE,24,0.0,0.0,37,0.00,CLR,,0.00,WeatherDisplay:10.37,2013-05-30 20:13:00,
2013-05-30 16:18:00,84.0,55.7,30.19,NNE,24,0.0,0.0,38,0.00,CLR,,0.00,WeatherDisplay:10.37,2013-05-30 20:18:00,
2013-05-30 16:23:00,83.8,56.2,30.19,NNE,24,0.0,0.0,39,0.00,CLR,,0.00,WeatherDisplay:10.37,2013-05-30 20:23:00,
2013-05-30 16:28:00,83.5,55.9,30.19,NNE,24,0.0,0.0,39,0.00,CLR,,0.00,WeatherDisplay:10.37,2013-05-30 20:28:00,
2013-05-30 16:33:00,83.5,56.6,30.19,NNE,24,0.0,0.0,40,0.00,CLR,,0.00,WeatherDisplay:10.37,2013-05-30 20:33:00,
2013-05-30 16:38:00,83.7,56.8,30.19,NNE,24,0.0,0.0,40,0.00,CLR,,0.00,WeatherDisplay:10.37,2013-05-30 20:38:00,
2013-05-30 16:43:00,83.8,57.6,30.19,NNE,24,0.0,0.0,41,0.00,CLR,,0.00,WeatherDisplay:10.37,2013-05-30 20:43:00,
2013-05-30 16:48:00,84.0,57.8,30.19,NNE,24,0.0,0.0,41,0.00,CLR,,0.00,WeatherDisplay:10.37,2013-05-30 20:48:00,
2013-05-30 16:53:00,84.2,58.6,30.19,NNE,24,0.0,0.0,42,0.00,CLR,,0.00,WeatherDisplay:10.37,2013-05-30 20:53:00,
2013-05-30 16:59:00,84.6,58.9,30.19,NNE,24,0.0,0.0,42,0.00,CLR,,0.00,WeatherDisplay:10.37,2013-05-30 20:59:00,
2013-05-30 17:04:00,84.7,59.1,30.19,NNE,24,0.0,0.0,42,0.00,CLR,,0.00,WeatherDisplay:10.37,2013-05-30 21:04:00,
2013-05-30 17:09:00,85.1,59.4,30.19,NNE,24,0.0,0.0,42,0.00,CLR,,0.00,WeatherDisplay:10.37,2013-05-30 21:09:00,
2013-05-30 17:14:00,85.5,59.1,30.19,NNE,24,0.0,0.0,41,0.00,CLR,,0.00,WeatherDisplay:10.37,2013-05-30 21:14:00,
2013-05-30 17:19:00,85.6,59.2,30.19,NNE,24,0.0,0.0,41,0.00,CLR,,0.00,WeatherDisplay:10.37,2013-05-30 21:19:00,
2013-05-30 17:24:00,85.8,59.4,30.19,NNE,24,0.0,0.0,41,0.00,CLR,,0.00,WeatherDisplay:10.37,2013-05-30 21:24:00,
2013-05-30 17:29:00,85.8,58.0,30.19,NNE,24,0.0,0.0,39,0.00,CLR,,0.00,WeatherDisplay:10.37,2013-05-30 21:29:00,
2013-05-30 17:34:00,86.0,59.6,30.19,NNE,24,0.0,0.0,41,0.00,CLR,,0.00,WeatherDisplay:10.37,2013-05-30 21:34:00,
2013-05-30 17:39:00,86.2,59.0,30.19,NNE,24,0.0,0.0,40,0.00,CLR,,0.00,WeatherDisplay:10.37,2013-05-30 21:39:00,
2013-05-30 17:44:00,88.2,60.8,30.18,NNE,24,0.0,0.0,40,0.00,CLR,,0.00,WeatherDisplay:10.37,2013-05-30 21:44:00,
2013-05-30 17:49:00,89.1,59.4,30.18,NNE,24,0.0,0.0,37,0.00,CLR,,0.00,WeatherDisplay:10.37,2013-05-30 21:49:00,
2013-05-30 17:54:00,89.4,59.0,30.18,NNE,24,0.0,0.0,36,0.00,CLR,,0.00,WeatherDisplay:10.37,2013-05-30 21:54:00,
2013-05-30 17:59:00,88.5,57.4,30.18,NNE,24,0.0,0.0,35,0.00,CLR,,0.00,WeatherDisplay:10.37,2013-05-30 21:59:00,
2013-05-30 18:04:00,87.6,56.6,30.18,NNE,24,0.0,0.0,35,0.00,CLR,,0.00,WeatherDisplay:10.37,2013-05-30 22:04:00,
2013-05-30 18:09:00,86.9,56.7,30.17,NNE,24,0.0,0.0,36,0.00,CLR,,0.00,WeatherDisplay:10.37,2013-05-30 22:09:00,
2013-05-30 18:14:00,86.4,57.0,30.17,NNE,24,0.0,0.0,37,0.00,CLR,,0.00,WeatherDisplay:10.37,2013-05-30 22:14:00,
2013-05-30 18:19:00,85.6,56.4,30.17,NNE,24,0.0,0.0,37,0.00,CLR,,0.00,WeatherDisplay:10.37,2013-05-30 22:19:00,
2013-05-30 18:24:00,85.1,56.6,30.17,NNE,24,0.0,0.0,38,0.00,CLR,,0.00,WeatherDisplay:10.37,2013-05-30 22:24:00,
2013-05-30 18:29:00,85.1,56.6,30.17,NNE,24,0.0,0.0,38,0.00,CLR,,0.00,WeatherDisplay:10.37,2013-05-30 22:29:00,
2013-05-30 18:34:00,84.7,57.0,30.17,NNE,24,0.0,0.0,39,0.00,CLR,,0.00,WeatherDisplay:10.37,2013-05-30 22:34:00,
2013-05-30 18:39:00,84.6,56.9,30.17,NNE,24,0.0,0.0,39,0.00,CLR,,0.00,WeatherDisplay:10.37,2013-05-30 22:39:00,
2013-05-30 18:44:00,84.0,56.4,30.17,NNE,22,0.0,0.0,39,0.00,CLR,,0.00,WeatherDisplay:10.37,2013-05-30 22:44:00,
2013-05-30 18:49:00,83.7,57.5,30.17,NNE,22,0.0,0.0,41,0.00,CLR,,0.00,WeatherDisplay:10.37,2013-05-30 22:49:00,
2013-05-30 18:54:00,83.1,57.0,30.17,NNE,22,0.0,0.0,41,0.00,CLR,,0.00,WeatherDisplay:10.37,2013-05-30 22:54:00,
2013-05-30 18:59:00,82.9,56.8,30.16,NNE,22,0.0,0.0,41,0.00,CLR,,0.00,WeatherDisplay:10.37,2013-05-30 22:59:00,
2013-05-30 19:04:00,82.9,57.5,30.16,NNE,22,2.3,0.0,42,0.00,CLR,,0.00,WeatherDisplay:10.37,2013-05-30 23:04:00,
2013-05-30 19:09:00,83.3,57.8,30.17,NNE,22,0.0,0.0,42,0.00,CLR,,0.00,WeatherDisplay:10.37,2013-05-30 23:09:00,
2013-05-30 19:14:00,84.2,57.3,30.17,NNE,24,0.0,0.0,40,0.00,CLR,,0.00,WeatherDisplay:10.37,2013-05-30 23:14:00,
2013-05-30 19:19:00,84.0,57.1,30.17,NNE,24,0.0,0.0,40,0.00,CLR,,0.00,WeatherDisplay:10.37,2013-05-30 23:19:00,
2013-05-30 19:24:00,83.5,57.3,30.17,NNE,24,0.0,0.0,41,0.00,CLR,,0.00,WeatherDisplay:10.37,2013-05-30 23:24:00,
2013-05-30 19:29:00,82.6,57.8,30.17,NNE,24,0.0,0.0,43,0.00,CLR,,0.00,WeatherDisplay:10.37,2013-05-30 23:29:00,
2013-05-30 19:34:00,82.2,57.5,30.17,NNE,22,0.0,0.0,43,0.00,CLR,,0.00,WeatherDisplay:10.37,2013-05-30 23:34:00,
2013-05-30 19:39:00,81.3,57.9,30.17,NNE,22,0.0,0.0,45,0.00,CLR,,0.00,WeatherDisplay:10.37,2013-05-30 23:39:00,
2013-05-30 19:44:00,80.8,58.1,30.17,NNE,22,0.0,0.0,46,0.00,CLR,,0.00,WeatherDisplay:10.37,2013-05-30 23:44:00,
2013-05-30 19:49:00,80.2,58.8,30.17,NNE,22,0.0,0.0,48,0.00,CLR,,0.00,WeatherDisplay:10.37,2013-05-30 23:49:00,
2013-05-30 19:54:00,79.9,58.4,30.17,NNE,22,0.0,0.0,48,0.00,CLR,,0.00,WeatherDisplay:10.37,2013-05-30 23:54:00,
2013-05-30 19:59:00,79.5,58.7,30.17,NNE,22,0.0,0.0,49,0.00,CLR,,0.00,WeatherDisplay:10.37,2013-05-30 23:59:00,
2013-05-30 20:04:00,78.6,57.9,30.17,NNE,22,0.0,0.0,49,0.00,CLR,,0.00,WeatherDisplay:10.37,2013-05-31 00:04:00,
2013-05-30 20:09:00,78.1,57.9,30.17,NNE,22,0.0,0.0,50,0.00,CLR,,0.00,WeatherDisplay:10.37,2013-05-31 00:09:00,
2013-05-30 20:14:00,77.7,58.1,30.17,NNE,22,0.0,0.0,51,0.00,CLR,,0.00,WeatherDisplay:10.37,2013-05-31 00:14:00,
2013-05-30 20:19:00,77.5,58.5,30.17,NNE,22,0.0,0.0,52,0.00,CLR,,0.00,WeatherDisplay:10.37,2013-05-31 00:19:00,
2013-05-30 20:24:00,77.0,58.0,30.17,NNE,22,0.0,0.0,52,0.00,CLR,,0.00,WeatherDisplay:10.37,2013-05-31 00:24:00,
2013-05-30 20:29:00,76.6,58.2,30.17,NNE,22,0.0,0.0,53,0.00,CLR,,0.00,WeatherDisplay:10.37,2013-05-31 00:29:00,
2013-05-30 20:34:00,76.1,58.2,30.17,NNE,22,0.0,0.0,54,0.00,CLR,,0.00,WeatherDisplay:10.37,2013-05-31 00:34:00,
2013-05-30 20:39:00,75.7,58.4,30.17,NNE,22,0.0,0.0,55,0.00,CLR,,0.00,WeatherDisplay:10.37,2013-05-31 00:39:00,
2013-05-30 20:44:00,75.4,57.6,30.17,NNE,22,0.0,0.0,54,0.00,CLR,,0.00,WeatherDisplay:10.37,2013-05-31 00:44:00,
2013-05-30 20:49:00,75.0,57.8,30.18,NNE,22,0.0,0.0,55,0.00,CLR,,0.00,WeatherDisplay:10.37,2013-05-31 00:49:00,
2013-05-30 20:54:00,74.8,58.1,30.18,NNE,22,0.0,0.0,56,0.00,CLR,,0.00,WeatherDisplay:10.37,2013-05-31 00:54:00,
2013-05-30 20:59:00,74.3,58.1,30.18,NNE,22,0.0,0.0,57,0.00,CLR,,0.00,WeatherDisplay:10.37,2013-05-31 00:59:00,
2013-05-30 21:04:00,74.1,57.9,30.18,NNE,22,0.0,0.0,57,0.00,CLR,,0.00,WeatherDisplay:10.37,2013-05-31 01:04:00,
2013-05-30 21:09:00,73.8,57.6,30.18,NNE,22,0.0,0.0,57,0.00,CLR,,0.00,WeatherDisplay:10.37,2013-05-31 01:09:00,
2013-05-30 21:14:00,73.4,57.7,30.18,NNE,22,0.0,0.0,58,0.00,CLR,,0.00,WeatherDisplay:10.37,2013-05-31 01:14:00,
2013-05-30 21:19:00,73.2,58.0,30.18,NNE,22,0.0,0.0,59,0.00,CLR,,0.00,WeatherDisplay:10.37,2013-05-31 01:19:00,
2013-05-30 21:24:00,72.9,57.7,30.18,NNE,22,0.0,0.0,59,0.00,CLR,,0.00,WeatherDisplay:10.37,2013-05-31 01:24:00,
2013-05-30 21:29:00,72.5,57.4,30.18,NNE,22,0.0,0.0,59,0.00,CLR,,0.00,WeatherDisplay:10.37,2013-05-31 01:29:00,
2013-05-30 21:34:00,72.3,57.7,30.18,NNE,22,0.0,0.0,60,0.00,CLR,,0.00,WeatherDisplay:10.37,2013-05-31 01:34:00,
2013-05-30 21:39:00,72.3,57.7,30.18,NNE,22,0.0,0.0,60,0.00,CLR,,0.00,WeatherDisplay:10.37,2013-05-31 01:39:00,
2013-05-30 21:44:00,72.0,57.8,30.19,NNE,22,0.0,0.0,61,0.00,CLR,,0.00,WeatherDisplay:10.37,2013-05-31 01:44:00,
2013-05-30 21:49:00,71.8,57.6,30.19,NNE,22,0.0,0.0,61,0.00,CLR,,0.00,WeatherDisplay:10.37,2013-05-31 01:49:00,
2013-05-30 21:54:00,71.4,57.3,30.19,NNE,22,0.0,0.0,61,0.00,CLR,,0.00,WeatherDisplay:10.37,2013-05-31 01:54:00,
2013-05-30 21:59:00,71.4,57.7,30.19,NNE,22,0.0,0.0,62,0.00,CLR,,0.00,WeatherDisplay:10.37,2013-05-31 01:59:00,
2013-05-30 22:04:00,71.2,57.5,30.19,NNE,22,0.0,0.0,62,0.00,CLR,,0.00,WeatherDisplay:10.37,2013-05-31 02:04:00,
2013-05-30 22:09:00,71.2,58.0,30.19,NNE,22,0.0,0.0,63,0.00,CLR,,0.00,WeatherDisplay:10.37,2013-05-31 02:09:00,
2013-05-30 22:14:00,71.2,58.0,30.20,NNE,22,0.0,0.0,63,0.00,CLR,,0.00,WeatherDisplay:10.37,2013-05-31 02:14:00,
2013-05-30 22:19:00,71.2,58.0,30.20,NNE,24,0.0,0.0,63,0.00,CLR,,0.00,WeatherDisplay:10.37,2013-05-31 02:19:00,
2013-05-30 22:24:00,70.9,57.7,30.20,NNE,24,0.0,0.0,63,0.00,CLR,,0.00,WeatherDisplay:10.37,2013-05-31 02:24:00,
2013-05-30 22:29:00,70.7,57.5,30.21,NNE,24,0.0,0.0,63,0.00,CLR,,0.00,WeatherDisplay:10.37,2013-05-31 02:29:00,
2013-05-30 22:34:00,70.7,57.5,30.20,NNE,24,0.0,0.0,63,0.00,CLR,,0.00,WeatherDisplay:10.37,2013-05-31 02:34:00,
2013-05-30 22:39:00,70.5,57.8,30.21,NNE,24,0.0,0.0,64,0.00,CLR,,0.00,WeatherDisplay:10.37,2013-05-31 02:39:00,
2013-05-30 22:44:00,70.3,57.6,30.21,NNE,24,0.0,0.0,64,0.00,CLR,,0.00,WeatherDisplay:10.37,2013-05-31 02:44:00,
2013-05-30 22:49:00,70.2,57.4,30.21,NNE,22,0.0,0.0,64,0.00,CLR,,0.00,WeatherDisplay:10.37,2013-05-31 02:49:00,
2013-05-30 22:54:00,70.0,57.7,30.21,NNE,24,0.0,0.0,65,0.00,CLR,,0.00,WeatherDisplay:10.37,2013-05-31 02:54:00,
2013-05-30 22:59:00,70.0,57.7,30.21,NNE,22,0.0,0.0,65,0.00,CLR,,0.00,WeatherDisplay:10.37,2013-05-31 02:59:00,
2013-05-30 23:04:00,69.8,57.9,30.21,NNE,22,0.0,0.0,66,0.00,CLR,,0.00,WeatherDisplay:10.37,2013-05-31 03:04:00,
2013-05-30 23:09:00,69.6,57.8,30.21,NNE,24,0.0,0.0,66,0.00,CLR,,0.00,WeatherDisplay:10.37,2013-05-31 03:09:00,
2013-05-30 23:14:00,69.6,57.8,30.21,NNE,24,0.0,0.0,66,0.00,CLR,,0.00,WeatherDisplay:10.37,2013-05-31 03:14:00,
2013-05-30 23:19:00,69.4,57.6,30.21,NNE,24,0.0,0.0,66,0.00,CLR,,0.00,WeatherDisplay:10.37,2013-05-31 03:19:00,
2013-05-30 23:24:00,69.3,57.8,30.21,NNE,24,0.0,0.0,67,0.00,CLR,,0.00,WeatherDisplay:10.37,2013-05-31 03:24:00,
2013-05-30 23:29:00,69.1,57.7,30.21,NNE,24,0.0,0.0,67,0.00,CLR,,0.00,WeatherDisplay:10.37,2013-05-31 03:29:00,
2013-05-30 23:34:00,68.9,57.5,30.21,NNE,24,0.0,0.0,67,0.00,CLR,,0.00,WeatherDisplay:10.37,2013-05-31 03:34:00,
2013-05-30 23:39:00,68.7,57.3,30.21,NNE,24,0.0,0.0,67,0.00,CLR,,0.00,WeatherDisplay:10.37,2013-05-31 03:39:00,
2013-05-30 23:44:00,68.5,57.1,30.21,NNE,24,0.0,0.0,67,0.00,CLR,,0.00,WeatherDisplay:10.37,2013-05-31 03:44:00,
2013-05-30 23:49:00,68.4,57.4,30.21,NNE,24,0.0,0.0,68,0.00,CLR,,0.00,WeatherDisplay:10.37,2013-05-31 03:49:00,
2013-05-30 23:54:00,68.2,57.6,30.21,NNE,24,0.0,0.0,69,0.00,CLR,,0.00,WeatherDisplay:10.37,2013-05-31 03:54:00,
2013-05-30 23:59:00,68.2,57.6,30.21,NNE,24,0.0,0.0,69,0.00,CLR,,0.00,WeatherDisplay:10.37,2013-05-31 03:59:00,